Regional Weather Roundup
Issued by NWS

Home | Current Version | Previous Version | Text Only | Print | Product List | Glossary Off
Versions: 1 2 3 4 5 6 7 8 9 10 11 12 13 14 15 16 17 18 19 20 21 22 23 24 25 26 27 28 29 30 31 32 33 34 35 36 37 38 39 40 41 42 43 44 45 46 47 48 49 50

768
ASUS44 KLIX 171511
RWRLA
LOUISIANA WEATHER ROUNDUP
NATIONAL WEATHER SERVICE NEW ORLEANS LA
1000 AM CDT FRI APR 17 2015

NOTE: "FAIR" INDICATES FEW OR NO CLOUDS BELOW 12,000 FEET WITH NO
      SIGNIFICANT WEATHER AND/OR OBSTRUCTIONS TO VISIBILITY.
      SKY/WX - SKY CONDITION AND SIGNIFICANT WEATHER.
      TMP - AIR TEMPERATURE.    DP   - DEWPOINT TEMPERATURE.
      RH  - RELATIVE HUMIDITY.  PRES - PRESSURE.
      HX  - HEAT INDEX.         WCI  - WIND CHILL INDEX.

*  THESE STATIONS ARE NOT NWS OR FAA STATIONS AND ARE NOT UNDER
   NWS QUALITY CONTROL.

LAZ040-048-061>063-065-066-069-171600-
SOUTHEAST LOUISIANA

CITY           SKY/WX    TMP DP  RH WIND       PRES   REMARKS
N.O. AUDUBON     N/A     73  73  99 MISG        N/A
N.O. INTL ARPT PTSUNNY   74  68  81 SE9       29.99R
N.O. LAKEFRONT CLOUDY    75  69  81 S10       30.00R
SLIDELL        PTSUNNY   75  71  87 SE9       29.98S
BATON ROUGE    PTSUNNY   74  67  78 E8        29.99S
BOOTHVILLE     CLOUDY    74  71  91 SE16G24   29.99S
BELLE CHASSE   CLOUDY    74  69  85 S7        29.99R
BOGALUSA*        N/A     75  68  78 CALM      30.03R
GALLIANO*      CLOUDY    75  71  87 S6        29.98R
NEW ROADS*     CLOUDY    74  67  80 SE6       30.00R
GONZALES*      PTSUNNY   75  70  84 E8        29.99R
HAMMOND*       PTSUNNY   77  66  69 CALM      30.01S
HOUMA*         PTSUNNY   70  70 100 E5        29.99R
PORT FOURCHON* MOSUNNY   73  72  94 S13       30.01F

$$

LAZ041-044-053-054-171600-
SOUTHWEST LOUISIANA

CITY           SKY/WX    TMP DP  RH WIND       PRES   REMARKS
LAKE CHARLES   CLOUDY    71  65  81 NE7       29.99R
LAFAYETTE      PTSUNNY   74  67  78 CALM      29.98R
PATTERSON      CLOUDY    73  66  78 SE9       29.99R
SALT POINT       N/A     73  69  87 SE12      29.95R
NEW IBERIA     PTSUNNY   75  68  78 SE10      29.99R
CHENAULT AIRPK MOSUNNY   70  64  83 NE7         N/A

$$

LAZ027-028-171600-
CENTRAL LOUISIANA

CITY           SKY/WX    TMP DP  RH WIND       PRES   REMARKS
FORT POLK      PTSUNNY   69  64  83 N9        29.99R
ALEXANDRIA INT MOSUNNY   72  64  76 CALM      29.99R
ALEXANDRIA     PTSUNNY   70  66  87 VRB3      30.00R

$$

LAZ001-002-171600-
NORTHWEST LOUISIANA

CITY           SKY/WX    TMP DP  RH WIND       PRES   REMARKS
SHREVEPORT     PTSUNNY   68  62  81 NW3       30.00S
BARKSDALE AFB  PTSUNNY   70  63  79 VRB3      30.01R
DTN SHREVEPORT PTSUNNY   69  62  78 CALM      30.01R

$$

LAZ014-016-171600-
NORTHEAST LOUISIANA

CITY           SKY/WX    TMP DP  RH WIND       PRES   REMARKS
MONROE         SUNNY     74  65  73 SE3       30.01R
TALLULAH       PTSUNNY   73  67  81 NE6       30.01R

$$




USA.gov is the U.S. government's official web portal to all federal, state and local government web resources and services.